Location: Newark
(0.5300°S, 127.4800°E)
Time: 23:21:33
(UTC+00:00)

A-11 Canister half - Pass Details

Date: 19 September 2019
Orbit: 1514 x 1686 km, 47.2° (Epoch: 14 October)

Event Time Altitude Azimuth Distance (km) Brightness Sun altitude
Rises 22:53:08 0° 225° (SW) 4,852 11.2 22.3°
Reaches altitude 10° 22:56:20 10° 227° (SW) 3,842 10.7 23.1°
Maximum altitude 23:06:00 70° 309° (NW) 1,658 9.4 25.5°
Drops below altitude 10° 23:15:19 10° 32° (NNE) 3,702 11.6 27.9°
Sets 23:18:21 0° 34° (NE) 4,667 12.0 28.6°
